Change the Weather History Date:

Saturday, November 17, 2012

  Actual Average Record
Temperature  
Mean Temperature 80 °F -  
Max Temperature 93 °F 86 °F - ()
Min Temperature 68 °F 72 °F - ()
Cooling Degree Days 16    
Growing Degree Days 30 (Base 50)    
Moisture  
Dew Point 67 °F    
Average Humidity 56    
Maximum Humidity 94    
Minimum Humidity 35    
Precipitation  
Precipitation 0.00 in - - ()
Sea Level Pressure  
Sea Level Pressure 29.89 in    
Wind  
Wind Speed 5 mph ()    
Max Wind Speed 17 mph    
Max Gust Speed -    
Visibility 8.6 miles    
Events      
T = Trace of Precipitation, MM = Missing Value Source: Averaged Metar Reports

Daily Weather History Graph

Daily Weather History Graph

Search for Another Location

Airport or City:

Trip Planner

Search our weather history database for the weather conditions in past years. The results will help you decide how hot, cold, wet, or windy it might be!

Date:

Astronomy

Nov. 17, 2012 Rise Set
Actual Time 5:38 AM CST 5:15 PM CST
Civil Twilight 5:16 AM CST 5:38 PM CST
Nautical Twilight 4:50 AM CST 6:03 PM CST
Astronomical Twilight 4:25 AM CST 6:29 PM CST
Moon 9:22 AM CST (11/17) 9:21 PM CST (11/17)
Length of Visible Light 12h 21m
Length of Day
11h 37m
Waxing Crescent, 20% of the Moon is Illuminated
Nov 17
Waxing Crescent
Nov 20
First Quarter
Nov 28
Full
Dec 6
Last Quarter
Dec 13
New

Hourly Weather History & Observations

Time (CST) Temp. Heat Index Dew Point Humidity Pressure Visibility Wind Dir Wind Speed Gust Speed Precip Events Conditions
6:00 AM 70 °F - 67 °F 88% 29.91 in 12 mi SE 4.6 mph - -  
6:00 AM 69.8 °F - 68.0 °F 94% 29.89 in - SE 4.6 mph - N/A   Clear
7:00 AM 75.2 °F - 68.0 °F 78% 29.92 in - ESE 4.6 mph - N/A   Clear
8:00 AM 80.6 °F 83.9 °F 69.8 °F 70% 29.94 in - West 3.5 mph - N/A   Clear
9:00 AM 83 °F - 69 °F 54% 29.95 in 12 mi SW 4.6 mph - -  
9:00 AM 84.2 °F 87.3 °F 68.0 °F 58% 29.94 in - SW 4.6 mph - N/A   Clear
10:00 AM 86.0 °F 88.2 °F 66.2 °F 51% 29.94 in - South 4.6 mph - N/A   Clear
11:00 AM 89.6 °F 93.4 °F 68.0 °F 49% 29.93 in - SW 5.8 mph - N/A   Clear
12:00 PM 91 °F - 67 °F 35% 29.91 in 12 mi WSW 6.9 mph - -  
12:00 PM 91.4 °F 94.0 °F 66.2 °F 43% 29.89 in - WSW 6.9 mph - N/A   Clear
1:00 PM 91.4 °F 94.0 °F 66.2 °F 43% 29.86 in - SSW 3.5 mph - N/A   Clear
2:00 PM 91.4 °F 94.0 °F 66.2 °F 43% 29.84 in 6.2 mi West 10.4 mph - N/A   Partly Cloudy
3:00 PM 89 °F - 66 °F 37% 29.85 in 12 mi ESE 4.6 mph - -   Scattered Clouds
3:00 PM 89.6 °F 92.2 °F 66.2 °F 46% 29.84 in 6.2 mi ESE 4.6 mph - N/A   Partly Cloudy
4:00 PM 87.8 °F 90.4 °F 66.2 °F 49% 29.83 in 6.2 mi East 9.2 mph - N/A   Partly Cloudy
5:00 PM 84.2 °F 86.6 °F 66.2 °F 55% 29.85 in 6.2 mi East 10.4 mph - N/A   Partly Cloudy
6:00 PM 82 °F - 67 °F 51% 29.89 in 12 mi East 11.5 mph - -   Scattered Clouds
6:00 PM 82.4 °F 84.6 °F 66.2 °F 58% 29.87 in 6.2 mi East 11.5 mph - N/A   Partly Cloudy
7:00 PM 80.6 °F 82.7 °F 66.2 °F 61% 29.90 in 6.2 mi NE 11.5 mph - N/A   Partly Cloudy
8:00 PM 80.6 °F 82.7 °F 66.2 °F 61% 29.92 in 6.2 mi ENE 17.3 mph - N/A   Scattered Clouds